TimeCST,TemperatureF,Dew PointF,Humidity,Sea Level PressureIn,VisibilityMPH,Wind Direction,Wind SpeedMPH,Gust SpeedMPH,PrecipitationIn,Events,Conditions,WindDirDegrees,DateUTC
12:53 AM,27.0,15.1,61,30.11,10.0,WNW,9.2,-,N/A,,Clear,290,2013-02-19 06:53:00
1:53 AM,27.0,15.1,61,30.12,10.0,West,9.2,-,N/A,,Clear,270,2013-02-19 07:53:00
2:53 AM,26.1,15.1,63,30.13,10.0,West,8.1,-,N/A,,Clear,270,2013-02-19 08:53:00
3:53 AM,25.0,15.1,66,30.14,10.0,WNW,8.1,-,N/A,,Clear,290,2013-02-19 09:53:00
4:53 AM,25.0,15.1,66,30.16,10.0,NW,10.4,-,N/A,,Clear,310,2013-02-19 10:53:00
5:53 AM,25.0,15.1,66,30.19,10.0,WNW,13.8,25.3,N/A,,Partly Cloudy,300,2013-02-19 11:53:00
6:53 AM,23.0,14.0,68,30.22,10.0,NW,15.0,27.6,N/A,,Clear,310,2013-02-19 12:53:00
7:53 AM,21.9,10.0,60,30.25,10.0,NW,12.7,28.8,N/A,,Clear,310,2013-02-19 13:53:00
8:53 AM,21.9,7.0,53,30.28,10.0,NW,21.9,31.1,N/A,,Clear,320,2013-02-19 14:53:00
9:53 AM,24.1,7.0,48,30.30,10.0,WNW,18.4,26.5,N/A,,Clear,300,2013-02-19 15:53:00
10:53 AM,27.0,7.0,43,30.33,10.0,WNW,16.1,21.9,N/A,,Clear,300,2013-02-19 16:53:00
12:53 PM,30.9,6.1,35,30.32,10.0,WNW,17.3,25.3,N/A,,Clear,300,2013-02-19 18:53:00
1:53 PM,33.1,6.1,32,30.32,10.0,WNW,15.0,20.7,N/A,,Clear,300,2013-02-19 19:53:00
2:53 PM,34.0,3.9,28,30.31,10.0,West,9.2,21.9,N/A,,Clear,280,2013-02-19 20:53:00
3:53 PM,35.1,1.9,25,30.31,10.0,NNW,12.7,-,N/A,,Clear,340,2013-02-19 21:53:00
4:53 PM,33.1,1.0,26,30.31,10.0,NW,12.7,-,N/A,,Clear,320,2013-02-19 22:53:00
6:53 PM,26.1,-0.0,32,30.32,10.0,NNW,5.8,-,N/A,,Clear,340,2013-02-20 00:53:00
7:53 PM,25.0,1.9,37,30.34,10.0,NNW,6.9,-,N/A,,Clear,330,2013-02-20 01:53:00
8:53 PM,24.1,1.9,38,30.35,10.0,Calm,Calm,-,N/A,,Clear,0,2013-02-20 02:53:00
9:53 PM,21.9,5.0,48,30.35,10.0,North,10.4,-,N/A,,Clear,360,2013-02-20 03:53:00
10:53 PM,21.9,3.9,46,30.38,10.0,North,4.6,-,N/A,,Clear,350,2013-02-20 04:53:00
11:53 PM,19.9,5.0,52,30.38,10.0,North,6.9,-,N/A,,Clear,360,2013-02-20 05:53:00